20070714,000021,1382402,34.176483,-120.148777,2.3,16.474,33.716,43.274,2002.13,NaN,-3.591,16.643, NaN, NaN,24.550,   NaN,16.68,1013.49,92.78,16.81,144.4,149.0,8.7,8.1,286.7,289.5,14.8,13.8,NaN, NaN,18.0,126.8,NaN,1184371221,NaN,2,11.2,000021,   NaN,126.8,     NaN,      NaN,10.79,NaN,NaN,16.865, NaN,NaN,NaN, NaN, NaN,NaN
20070714,000052,1382433,34.175472,-120.147288,2.3,16.480,33.716,43.280,2003.19,NaN,-3.340,16.643, NaN, NaN,24.542,   NaN,16.70,1013.51,92.85,16.82,143.1,147.8,7.9,7.7,279.7,285.9,16.3,14.8,NaN, NaN,19.0,126.7,NaN,1184371252,NaN,2,11.2,000052,   NaN,126.7,     NaN,      NaN,10.75,NaN,NaN,16.871, NaN,NaN,NaN, NaN, NaN,NaN
20070714,000121,1382463,34.174473,-120.145855,2.3,16.510,33.714,43.309,2002.21,NaN,-3.641,16.652, NaN, NaN,24.540,   NaN,16.70,1013.49,92.85,16.81,144.9,148.0,9.4,8.4,297.7,292.0,14.2,13.5,NaN, NaN,20.0,126.7,NaN,1184371281,NaN,2,11.1,000082,   NaN,126.7,     NaN,      NaN,10.76,NaN,NaN,16.901, NaN,NaN,NaN, NaN, NaN,NaN
20070714,000152,1382493,34.173447,-120.144368,2.3,16.522,33.715,43.319,2000.93,NaN,-3.877,16.662, NaN, NaN,24.536,   NaN,16.69,1013.47,92.86,16.80,145.3,149.3,9.3,8.6,291.6,288.6,15.5,15.0,NaN, NaN,20.0,127.0,NaN,1184371312,NaN,2,11.1,000113,   NaN,127.0,     NaN,      NaN,10.89,NaN,NaN,16.913, NaN,NaN,NaN, NaN, NaN,NaN
20070714,000221,1382522,34.172502,-120.143013,2.3,16.534,33.713,43.331,2003.40,NaN,-4.075,16.672, NaN, NaN,24.537,   NaN,16.70,1013.46,92.85,16.81,150.6,153.5,9.7,9.4,291.5,293.8,15.9,15.2,NaN, NaN,21.0,127.0,NaN,1184371341,NaN,2,11.2,000141,   NaN,127.0,     NaN,      NaN,10.88,NaN,NaN,16.925, NaN,NaN,NaN, NaN, NaN,NaN
20070714,000251,1382552,34.171498,-120.141562,2.3,16.529,33.715,43.325,1998.13,NaN,-3.909,16.678, NaN, NaN,24.540,   NaN,16.67,1013.45,92.82,16.81,150.5,153.7,9.5,9.6,289.0,289.5,13.7,13.2,NaN, NaN,21.0,126.8,NaN,1184371371,NaN,2,11.2,000171,   NaN,126.8,     NaN,      NaN,10.92,NaN,NaN,16.920, NaN,NaN,NaN, NaN, NaN,NaN
20070714,000321,1382582,34.170508,-120.140105,2.3,16.529,33.713,43.326,1997.73,NaN,-4.342,16.682, NaN, NaN,24.533,   NaN,16.68,1013.48,92.84,16.77,149.1,151.5,8.7,8.1,286.9,286.9,13.8,13.1,NaN, NaN,20.0,126.7,NaN,1184371401,NaN,2,11.2,000201,   NaN,126.7,     NaN,      NaN,10.85,NaN,NaN,16.920, NaN,NaN,NaN, NaN, NaN,NaN
20070714,000351,1382613,34.169512,-120.138657,2.3,16.536,33.713,43.331,1994.20,NaN,-4.241,16.686, NaN, NaN,24.539,   NaN,16.72,1013.49,92.90,16.77,149.3,150.6,8.2,7.7,283.2,290.9,11.4,11.2,NaN, NaN,20.0,126.6,NaN,1184371431,NaN,2,11.2,000231,   NaN,126.6,     NaN,      NaN,10.87,NaN,NaN,16.927, NaN,NaN,NaN, NaN, NaN,NaN
20070714,000422,1382643,34.168462,-120.137130,2.3,16.527,33.712,43.322,1994.51,NaN,-4.335,16.692, NaN, NaN,24.535,   NaN,16.73,1013.49,92.95,16.82,149.4,151.0,7.8,7.6,289.1,290.7,13.8,13.4,NaN, NaN,18.0,127.0,NaN,1184371462,NaN,2,11.2,000263,   NaN,127.0,     NaN,      NaN,10.69,NaN,NaN,16.918, NaN,NaN,NaN, NaN, NaN,NaN
20070714,000451,1382672,34.167493,-120.135742,2.3,16.531,33.710,43.325,1992.40,NaN,-4.523,16.702, NaN, NaN,24.534,   NaN,16.74,1013.49,92.95,16.81,150.5,152.0,7.9,7.8,297.2,291.7,12.8,13.1,NaN, NaN,16.0,127.2,NaN,1184371491,NaN,2,11.1,000292,   NaN,127.2,     NaN,      NaN,10.80,NaN,NaN,16.922, NaN,NaN,NaN, NaN, NaN,NaN
20070714,000522,1382704,34.166460,-120.134237,2.3,16.523,33.710,43.315,1989.90,NaN,-4.557,16.702, NaN, NaN,24.543,   NaN,16.73,1013.46,92.94,16.78,155.4,152.3,8.2,8.1,286.6,290.3,15.1,14.6,NaN, NaN,17.0,127.0,NaN,1184371522,NaN,2,11.2,000323,   NaN,127.0,     NaN,      NaN,10.90,NaN,NaN,16.914, NaN,NaN,NaN, NaN, NaN,NaN
20070714,000551,1382732,34.165528,-120.132890,2.3,16.494,33.710,43.288,1986.34,NaN,-4.638,16.702, NaN, NaN,24.540,   NaN,16.73,1013.46,92.92,16.78,149.2,151.7,8.7,8.4,290.5,288.8,13.0,12.4,NaN, NaN,18.0,127.1,NaN,1184371551,NaN,2,11.2,000351,   NaN,127.1,     NaN,      NaN,10.80,NaN,NaN,16.885, NaN,NaN,NaN, NaN, NaN,NaN
20070714,000621,1382762,34.164538,-120.131455,2.3,16.495,33.708,43.287,1986.27,NaN,-4.712,16.702, NaN, NaN,24.543,   NaN,16.72,1013.49,92.94,16.80,148.4,150.7,8.1,8.0,293.0,288.2,11.3,12.4,NaN, NaN,18.0,127.2,NaN,1184371581,NaN,2,11.2,000381,   NaN,127.2,     NaN,      NaN,10.82,NaN,NaN,16.886, NaN,NaN,NaN, NaN, NaN,NaN
20070714,000652,1382793,34.163500,-120.129978,2.3,16.491,33.709,43.282,1982.53,NaN,-4.632,16.702, NaN, NaN,24.544,   NaN,16.74,1013.50,92.97,16.80,149.0,150.4,7.7,7.7,289.0,290.8,13.6,11.8,NaN, NaN,19.0,126.8,NaN,1184371612,NaN,2,11.1,000412,   NaN,126.9,     NaN,      NaN,10.66,NaN,NaN,16.882, NaN,NaN,NaN, NaN, NaN,NaN
20070714,000721,1382822,34.162497,-120.128538,2.3,16.490,33.707,43.282,1984.25,NaN,-4.666,16.702, NaN, NaN,24.534,   NaN,16.79,1013.48,92.99,16.80,148.9,151.3,8.0,7.7,288.4,290.8,15.2,13.7,NaN, NaN,21.0,126.9,NaN,1184371641,NaN,2,11.1,000442,   NaN,126.9,     NaN,      NaN,10.92,NaN,NaN,16.881, NaN,NaN,NaN, NaN, NaN,NaN
20070714,000751,1382852,34.161543,-120.127145,2.3,16.520,33.708,43.309,1982.06,NaN,-4.504,16.710, NaN, NaN,24.531,   NaN,16.79,1013.46,92.99,16.83,148.8,151.7,8.7,7.9,287.9,289.3,13.5,13.3,NaN, NaN,20.0,126.9,NaN,1184371671,NaN,2,11.2,000471,   NaN,126.8,     NaN,      NaN,10.79,NaN,NaN,16.911, NaN,NaN,NaN, NaN, NaN,NaN
20070714,000822,1382883,34.160510,-120.125653,2.3,16.527,33.708,43.316,1984.39,NaN,-4.446,16.712, NaN, NaN,24.534,   NaN,16.80,1013.45,92.96,16.84,145.3,150.4,8.7,8.0,281.2,285.6,12.4,11.9,NaN, NaN,19.0,127.0,NaN,1184371702,NaN,2,11.2,000502,   NaN,126.9,     NaN,      NaN,11.02,NaN,NaN,16.918, NaN,NaN,NaN, NaN, NaN,NaN
20070714,000851,1382912,34.159540,-120.124257,2.3,16.531,33.708,43.319,1981.48,NaN,-4.541,16.712, NaN, NaN,24.528,   NaN,16.81,1013.48,92.97,16.84,136.7,144.7,8.0,7.5,288.5,292.1,14.5,14.7,NaN, NaN,19.0,127.0,NaN,1184371731,NaN,2,11.2,000531,   NaN,127.0,     NaN,      NaN,10.83,NaN,NaN,16.922, NaN,NaN,NaN, NaN, NaN,NaN
20070714,000922,1382943,34.158502,-120.122755,2.3,16.546,33.707,43.335,1978.76,NaN,-4.351,16.716, NaN, NaN,24.525,   NaN,16.83,1013.49,93.01,16.84,137.8,143.3,7.4,6.5,284.1,288.1,12.5,11.9,NaN, NaN,19.0,126.8,NaN,1184371762,NaN,2,11.2,000562,   NaN,126.8,     NaN,      NaN,10.70,NaN,NaN,16.937, NaN,NaN,NaN, NaN, NaN,NaN
20070714,000951,1382973,34.157533,-120.121338,2.3,16.560,33.708,43.348,1978.05,NaN,-4.313,16.722, NaN, NaN,24.523,   NaN,16.89,1013.47,93.04,16.87,140.1,143.5,8.0,6.6,277.2,283.2,12.4,13.3,NaN, NaN,19.0,126.8,NaN,1184371791,NaN,2,11.3,000591,   NaN,126.9,     NaN,      NaN,11.13,NaN,NaN,16.951, NaN,NaN,NaN, NaN, NaN,NaN
20070714,001022,1383003,34.156507,-120.119833,2.3,16.573,33.708,43.361,1975.30,NaN,-4.346,16.732, NaN, NaN,24.517,   NaN,16.89,1013.47,93.02,16.88,138.7,142.9,8.0,7.5,288.3,289.3,13.0,13.2,NaN, NaN,18.0,126.6,NaN,1184371822,NaN,2,11.3,000622,   NaN,126.6,     NaN,      NaN,10.85,NaN,NaN,16.964, NaN,NaN,NaN, NaN, NaN,NaN
20070714,001051,1383032,34.155522,-120.118423,2.3,16.593,33.707,43.380,1976.01,NaN,-4.585,16.733, NaN, NaN,24.516,   NaN,16.89,1013.48,92.95,16.88,140.4,145.5,8.1,7.8,286.4,289.8,15.3,13.5,NaN, NaN,18.0,126.8,NaN,1184371851,NaN,2,11.3,000651,   NaN,126.8,     NaN,      NaN,10.97,NaN,NaN,16.984, NaN,NaN,NaN, NaN, NaN,NaN
20070714,001121,1383062,34.154518,-120.116948,2.3,16.598,33.709,43.385,1973.47,NaN,-4.418,16.747, NaN, NaN,24.510,   NaN,16.88,1013.50,92.92,16.88,145.3,146.3,8.3,7.6,287.2,288.9,12.7,11.9,NaN, NaN,18.0,127.0,NaN,1184371881,NaN,2,11.3,000681,   NaN,127.0,     NaN,      NaN,11.01,NaN,NaN,16.989, NaN,NaN,NaN, NaN, NaN,NaN
20070714,001151,1383092,34.153530,-120.115480,2.3,16.619,33.708,43.406,1973.51,NaN,-4.659,16.752, NaN, NaN,24.509,   NaN,16.88,1013.49,92.90,16.88,146.5,147.3,8.0,6.6,288.7,288.4,12.2,11.6,NaN, NaN,18.0,126.7,NaN,1184371911,NaN,2,11.3,000711,   NaN,126.7,     NaN,      NaN,10.93,NaN,NaN,17.010, NaN,NaN,NaN, NaN, NaN,NaN
20070714,001222,1383123,34.152505,-120.113985,2.3,16.635,33.707,43.420,1966.07,NaN,-4.651,16.764, NaN, NaN,24.508,   NaN,16.88,1013.47,92.92,16.89,148.7,148.5,8.0,6.8,288.1,289.3,13.4,12.3,NaN, NaN,18.0,126.9,NaN,1184371942,NaN,2,11.2,000742,   NaN,126.9,     NaN,      NaN,10.87,NaN,NaN,17.026, NaN,NaN,NaN, NaN, NaN,NaN
20070714,001252,1383153,34.151453,-120.112508,2.3,16.634,33.709,43.420,1967.47,NaN,-4.562,16.774, NaN, NaN,24.505,   NaN,16.88,1013.45,92.93,16.89,147.1,147.0,8.1,7.7,293.7,293.0,11.9,14.3,NaN, NaN,18.0,127.5,NaN,1184371972,NaN,2,11.2,000773,   NaN,127.5,     NaN,      NaN,10.87,NaN,NaN,17.025, NaN,NaN,NaN, NaN, NaN,NaN
20070714,001321,1383182,34.150508,-120.111138,2.3,16.646,33.708,43.433,1964.33,NaN,-4.707,16.783, NaN, NaN,24.504,   NaN,16.87,1013.45,92.85,16.92,145.1,147.5,8.6,8.1,286.4,288.4,14.9,13.4,NaN, NaN,18.0,127.1,NaN,1184372001,NaN,2,11.3,000801,   NaN,127.1,     NaN,      NaN,11.11,NaN,NaN,17.037, NaN,NaN,NaN, NaN, NaN,NaN
20070714,001352,1383214,34.149483,-120.109617,2.3,16.652,33.709,43.438,1962.08,NaN,-4.677,16.791, NaN, NaN,24.509,   NaN,16.86,1013.45,92.82,16.91,144.6,149.1,8.5,7.9,281.9,285.8,13.2,11.8,NaN, NaN,17.0,126.8,NaN,1184372032,NaN,2,11.3,000832,   NaN,126.8,     NaN,      NaN,10.93,NaN,NaN,17.043, NaN,NaN,NaN, NaN, NaN,NaN
20070714,001421,1383242,34.148480,-120.108225,2.3,16.636,33.711,43.422,1967.10,NaN,-4.525,16.801, NaN, NaN,24.514,   NaN,16.86,1013.44,92.84,16.87,139.9,143.3,8.0,7.2,281.0,286.1,12.4,12.0,NaN, NaN,17.0,127.4,NaN,1184372061,NaN,2,11.3,000861,   NaN,127.4,     NaN,      NaN,11.16,NaN,NaN,17.027, NaN,NaN,NaN, NaN, NaN,NaN
20070714,001451,1383272,34.147490,-120.106738,2.3,16.626,33.711,43.414,1961.30,NaN,-4.619,16.807, NaN, NaN,24.508,   NaN,16.88,1013.43,92.90,16.90,140.1,144.5,8.2,7.3,281.8,289.3,14.3,12.8,NaN, NaN,17.0,127.3,NaN,1184372091,NaN,2,11.3,000891,   NaN,127.3,     NaN,      NaN,11.11,NaN,NaN,17.017, NaN,NaN,NaN, NaN, NaN,NaN
20070714,001521,1383303,34.146475,-120.105263,2.3,16.632,33.709,43.420,1955.03,NaN,-4.607,16.811, NaN, NaN,24.519,   NaN,16.85,1013.40,92.91,16.93,144.8,147.6,8.3,7.6,286.8,287.0,14.0,13.2,NaN, NaN,17.0,126.6,NaN,1184372121,NaN,2,11.4,000921,   NaN,126.6,     NaN,      NaN,11.34,NaN,NaN,17.023, NaN,NaN,NaN, NaN, NaN,NaN
20070714,001552,1383333,34.145437,-120.103735,2.3,16.599,33.715,43.389,1950.69,NaN,-4.477,16.811, NaN, NaN,24.524,   NaN,16.82,1013.39,92.88,16.93,146.3,147.8,8.5,7.7,287.2,286.3,13.6,12.8,NaN, NaN,17.0,126.6,NaN,1184372152,NaN,2,11.4,000952,   NaN,126.7,     NaN,      NaN,11.21,NaN,NaN,16.990, NaN,NaN,NaN, NaN, NaN,NaN
20070714,001621,1383362,34.144485,-120.102288,2.3,16.592,33.710,43.384,1952.59,NaN,-4.452,16.811, NaN, NaN,24.520,   NaN,16.83,1013.38,92.88,16.88,145.8,145.4,8.7,7.7,279.4,286.5,14.7,13.7,NaN, NaN,17.0,126.7,NaN,1184372181,NaN,2,11.4,000981,   NaN,126.7,     NaN,      NaN,11.11,NaN,NaN,16.983, NaN,NaN,NaN, NaN, NaN,NaN
20070714,001652,1383393,34.143447,-120.100788,2.3,16.579,33.712,43.370,1954.83,NaN,-4.440,16.809, NaN, NaN,24.535,   NaN,16.84,1013.38,92.87,16.89,147.3,148.3,9.0,7.9,281.3,290.5,12.2,12.1,NaN, NaN,17.0,127.2,NaN,1184372212,NaN,2,11.3,001012,   NaN,127.1,     NaN,      NaN,11.02,NaN,NaN,16.970, NaN,NaN,NaN, NaN, NaN,NaN
20070714,001721,1383422,34.142522,-120.099368,2.3,16.523,33.711,43.318,1953.24,NaN,-4.398,16.800, NaN, NaN,24.555,   NaN,16.82,1013.38,92.86,16.92,146.9,149.0,7.7,7.1,282.8,287.1,13.6,13.2,NaN, NaN,17.0,127.0,NaN,1184372241,NaN,2,11.2,001041,   NaN,127.0,     NaN,      NaN,11.18,NaN,NaN,16.914, NaN,NaN,NaN, NaN, NaN,NaN
20070714,001752,1383453,34.141498,-120.097877,2.3,16.450,33.715,43.248,1945.57,NaN,-4.400,16.781, NaN, NaN,24.560,   NaN,16.84,1013.39,92.89,16.92,143.3,147.4,8.4,7.5,287.5,288.9,13.9,13.7,NaN, NaN,18.0,126.8,NaN,1184372272,NaN,2,11.1,001072,   NaN,126.9,     NaN,      NaN,10.89,NaN,NaN,16.841, NaN,NaN,NaN, NaN, NaN,NaN
20070714,001822,1383483,34.140518,-120.096438,2.3,16.428,33.715,43.229,1945.32,NaN,-4.313,16.767, NaN, NaN,24.556,   NaN,16.83,1013.38,92.87,16.90,142.3,147.1,8.8,7.9,288.7,289.3,13.6,12.4,NaN, NaN,18.0,127.2,NaN,1184372302,NaN,2,11.1,001102,   NaN,127.2,     NaN,      NaN,10.76,NaN,NaN,16.819, NaN,NaN,NaN, NaN, NaN,NaN
20070714,001852,1383513,34.139535,-120.094970,2.3,16.428,33.716,43.229,1943.24,NaN,-4.243,16.753, NaN, NaN,24.567,   NaN,16.83,1013.38,92.88,16.90,143.9,148.2,7.7,7.4,289.5,288.3,13.6,12.9,NaN, NaN,17.0,126.8,NaN,1184372332,NaN,2,11.1,001132,   NaN,126.7,     NaN,      NaN,11.07,NaN,NaN,16.819, NaN,NaN,NaN, NaN, NaN,NaN
20070714,001921,1383542,34.138580,-120.093555,2.3,16.408,33.720,43.212,1944.95,NaN,-4.353,16.736, NaN, NaN,24.569,   NaN,16.81,1013.38,92.86,16.90,143.9,148.1,8.6,8.2,280.5,285.3,14.4,13.1,NaN, NaN,17.0,126.9,NaN,1184372361,NaN,2,11.2,001161,   NaN,126.9,     NaN,      NaN,10.95,NaN,NaN,16.799, NaN,NaN,NaN, NaN, NaN,NaN
20070714,001952,1383573,34.137560,-120.092043,2.3,16.413,33.719,43.218,1943.81,NaN,-4.521,16.724, NaN, NaN,24.567,   NaN,16.78,1013.34,92.84,16.87,142.1,146.0,9.2,8.6,285.4,288.1,14.6,13.8,NaN, NaN,17.0,127.3,NaN,1184372392,NaN,2,11.2,001192,   NaN,127.3,     NaN,      NaN,11.08,NaN,NaN,16.804, NaN,NaN,NaN, NaN, NaN,NaN
20070714,002022,1383603,34.136610,-120.090580,2.3,16.451,33.719,43.255,1934.24,NaN,-4.322,16.712, NaN, NaN,24.548,   NaN,16.80,1013.33,92.84,16.86,143.9,146.0,8.5,7.7,289.7,288.9,13.7,12.7,NaN, NaN,17.0,126.9,NaN,1184372422,NaN,2,11.2,001222,   NaN,126.9,     NaN,      NaN,11.01,NaN,NaN,16.842, NaN,NaN,NaN, NaN, NaN,NaN
20070714,002052,1383633,34.135658,-120.089117,2.3,16.469,33.721,43.273,1935.61,NaN,-4.463,16.712, NaN, NaN,24.557,   NaN,16.82,1013.35,92.89,16.87,145.6,148.5,8.0,7.2,290.9,290.0,13.0,12.7,NaN, NaN,16.0,126.4,NaN,1184372452,NaN,2,11.1,001252,   NaN,126.4,     NaN,      NaN,10.91,NaN,NaN,16.860, NaN,NaN,NaN, NaN, NaN,NaN
20070714,002121,1383662,34.134692,-120.087672,2.3,16.488,33.723,43.293,1937.68,NaN,-4.560,16.712, NaN, NaN,24.529,   NaN,16.82,1013.34,92.90,16.88,143.9,148.3,8.4,7.4,290.6,290.2,12.5,11.4,NaN, NaN,16.0,126.9,NaN,1184372481,NaN,2,11.1,001282,   NaN,126.9,     NaN,      NaN,10.89,NaN,NaN,16.879, NaN,NaN,NaN, NaN, NaN,NaN
20070714,002152,1383694,34.133695,-120.086173,2.3,16.595,33.722,43.398,1934.09,NaN,-4.683,16.716, NaN, NaN,24.515,   NaN,16.83,1013.32,92.91,16.91,141.4,144.8,8.1,7.0,293.3,290.5,10.9,11.0,NaN, NaN,17.0,127.1,NaN,1184372512,NaN,2,11.1,001313,   NaN,127.1,     NaN,      NaN,10.87,NaN,NaN,16.986, NaN,NaN,NaN, NaN, NaN,NaN
20070714,002221,1383722,34.132835,-120.084862,2.3,16.653,33.723,43.455,1935.74,NaN,-4.757,16.735, NaN, NaN,24.491,   NaN,16.91,1013.34,93.00,16.94,138.0,143.2,7.1,6.1,289.7,289.4,13.4,12.5,NaN, NaN,17.0,126.9,NaN,1184372541,NaN,2,11.1,001341,   NaN,126.8,     NaN,      NaN,10.80,NaN,NaN,17.044, NaN,NaN,NaN, NaN, NaN,NaN
20070714,002252,1383753,34.131817,-120.083317,2.3,16.746,33.726,43.545,1931.61,NaN,-4.857,16.760, NaN, NaN,24.486,   NaN,16.94,1013.33,93.01,16.96,136.2,142.6,7.1,6.6,285.8,285.3,11.9,11.8,NaN, NaN,17.0,126.7,NaN,1184372572,NaN,2,11.1,001372,   NaN,126.7,     NaN,      NaN,10.75,NaN,NaN,17.137, NaN,NaN,NaN, NaN, NaN,NaN
20070714,002321,1383783,34.130895,-120.081923,2.3,16.789,33.726,43.589,1932.44,NaN,-4.866,16.787, NaN, NaN,24.466,   NaN,16.94,1013.33,92.99,16.97,136.4,141.5,7.3,6.5,284.8,287.4,13.8,12.1,NaN, NaN,17.0,126.8,NaN,1184372601,NaN,2,11.0,001401,   NaN,126.8,     NaN,      NaN,10.71,NaN,NaN,17.180, NaN,NaN,NaN, NaN, NaN,NaN
20070714,002351,1383813,34.129933,-120.080480,2.3,16.867,33.725,43.665,1925.67,NaN,-4.915,16.824, NaN, NaN,24.446,   NaN,16.96,1013.32,92.98,16.99,142.9,143.2,7.2,6.6,287.5,291.6,11.4,9.3,NaN, NaN,17.0,127.2,NaN,1184372631,NaN,2,11.0,001431,   NaN,127.2,     NaN,      NaN,10.78,NaN,NaN,17.258, NaN,NaN,NaN, NaN, NaN,NaN
20070714,002422,1383843,34.128950,-120.078993,2.3,16.953,33.724,43.747,1928.05,NaN,-5.051,16.863, NaN, NaN,24.434,   NaN,16.99,1013.31,92.99,17.00,143.1,145.0,7.6,7.0,289.3,288.5,14.5,13.2,NaN, NaN,16.0,127.4,NaN,1184372662,NaN,2,11.0,001462,   NaN,127.4,     NaN,      NaN,10.81,NaN,NaN,17.344, NaN,NaN,NaN, NaN, NaN,NaN
20070714,002451,1383872,34.128028,-120.077600,2.3,16.993,33.725,43.786,1926.67,NaN,-5.343,16.902, NaN, NaN,24.432,   NaN,16.97,1013.29,92.89,17.00,142.4,144.9,8.3,7.9,287.3,281.6,12.3,9.5,NaN, NaN,17.0,127.0,NaN,1184372691,NaN,2,11.0,001491,   NaN,127.0,     NaN,      NaN,10.73,NaN,NaN,17.384, NaN,NaN,NaN, NaN, NaN,NaN
20070714,002521,1383902,34.127087,-120.076148,2.3,17.004,33.726,43.797,1921.85,NaN,-5.480,16.942, NaN, NaN,24.429,   NaN,16.95,1013.30,92.85,17.00,143.8,143.9,7.6,7.7,289.4,290.1,14.2,13.4,NaN, NaN,17.0,126.7,NaN,1184372721,NaN,2,11.0,001521,   NaN,126.7,     NaN,      NaN,10.77,NaN,NaN,17.395, NaN,NaN,NaN, NaN, NaN,NaN
20070714,002552,1383933,34.126113,-120.074655,2.3,17.011,33.725,43.804,1916.72,NaN,-5.726,16.976, NaN, NaN,24.436,   NaN,16.98,1013.31,92.89,17.01,137.0,138.0,7.4,6.4,272.0,286.7,12.5,8.9,NaN, NaN,17.0,126.7,NaN,1184372752,NaN,2,11.0,001552,   NaN,126.7,     NaN,      NaN,11.01,NaN,NaN,17.402, NaN,NaN,NaN, NaN, NaN,NaN
20070714,002622,1383963,34.125165,-120.073240,2.3,16.991,33.728,43.785,1917.83,NaN,-5.793,17.006, NaN, NaN,24.443,   NaN,17.00,1013.31,92.90,17.01,135.4,138.0,8.4,6.3,283.3,287.8,11.8,12.0,NaN, NaN,17.0,127.2,NaN,1184372782,NaN,2,10.9,001582,   NaN,127.2,     NaN,      NaN,10.68,NaN,NaN,17.382, NaN,NaN,NaN, NaN, NaN,NaN
20070714,002652,1383993,34.124237,-120.071817,2.3,16.969,33.728,43.766,1921.93,NaN,-6.218,17.030, NaN, NaN,24.445,   NaN,17.00,1013.30,92.85,17.00,139.2,143.7,8.2,6.7,280.6,288.1,11.1,12.2,NaN, NaN,17.0,127.3,NaN,1184372812,NaN,2,10.8,001612,   NaN,127.4,     NaN,      NaN,10.88,NaN,NaN,17.360, NaN,NaN,NaN, NaN, NaN,NaN
20070714,002721,1384022,34.123330,-120.070425,2.3,16.968,33.728,43.766,1917.97,NaN,-6.268,17.048, NaN, NaN,24.440,   NaN,17.00,1013.31,92.83,17.01,140.2,143.7,7.6,6.0,286.3,287.8,11.4,9.5,NaN, NaN,17.0,126.7,NaN,1184372841,NaN,2,10.9,001641,   NaN,126.8,     NaN,      NaN,10.93,NaN,NaN,17.359, NaN,NaN,NaN, NaN, NaN,NaN
20070714,002752,1384054,34.122360,-120.068933,2.3,16.984,33.727,43.781,1916.17,NaN,-6.382,17.064, NaN, NaN,24.434,   NaN,17.05,1013.31,92.88,17.04,137.5,141.6,7.4,6.4,281.0,285.5,11.3,12.0,NaN, NaN,17.0,126.7,NaN,1184372872,NaN,2,10.9,001672,   NaN,126.6,     NaN,      NaN,10.81,NaN,NaN,17.375, NaN,NaN,NaN, NaN, NaN,NaN
20070714,002821,1384082,34.121453,-120.067565,2.3,16.998,33.728,43.795,1911.09,NaN,-6.591,17.083, NaN, NaN,24.440,   NaN,17.02,1013.30,92.83,17.04,140.3,144.4,7.8,7.2,281.3,285.3,12.4,11.9,NaN, NaN,17.0,127.1,NaN,1184372901,NaN,2,10.9,001701,   NaN,127.1,     NaN,      NaN,10.83,NaN,NaN,17.389, NaN,NaN,NaN, NaN, NaN,NaN
20070714,002851,1384112,34.120510,-120.066097,2.3,16.984,33.729,43.781,1907.08,NaN,-6.676,17.093, NaN, NaN,24.448,   NaN,16.98,1013.30,92.78,17.02,141.1,142.4,7.5,7.3,285.2,285.7,12.7,11.9,NaN, NaN,16.0,126.8,NaN,1184372931,NaN,2,10.9,001731,   NaN,126.9,     NaN,      NaN,10.89,NaN,NaN,17.375, NaN,NaN,NaN, NaN, NaN,NaN
20070714,002922,1384143,34.119503,-120.064632,2.3,16.957,33.730,43.756,1910.54,NaN,-6.602,17.101, NaN, NaN,24.448,   NaN,16.97,1013.28,92.76,17.01,142.1,143.0,8.6,7.7,280.9,286.0,14.0,13.0,NaN, NaN,16.0,127.2,NaN,1184372962,NaN,2,11.0,001762,   NaN,127.2,     NaN,      NaN,10.80,NaN,NaN,17.348, NaN,NaN,NaN, NaN, NaN,NaN
20070714,002951,1384172,34.118618,-120.063202,2.3,16.953,33.730,43.752,1908.07,NaN,-7.137,17.109, NaN, NaN,24.456,   NaN,16.94,1013.29,92.70,17.00,142.6,145.3,8.9,7.7,281.1,286.9,14.6,12.9,NaN, NaN,17.0,126.7,NaN,1184372991,NaN,2,11.0,001791,   NaN,126.7,     NaN,      NaN,10.88,NaN,NaN,17.344, NaN,NaN,NaN, NaN, NaN,NaN
20070714,003021,1384202,34.117648,-120.061700,2.3,16.922,33.731,43.723,1901.32,NaN,-7.274,17.109, NaN, NaN,24.462,   NaN,16.94,1013.32,92.73,16.98,139.1,143.8,7.5,7.1,283.9,286.0,11.3,11.4,NaN, NaN,17.0,126.2,NaN,1184373021,NaN,2,11.0,001822,   NaN,126.2,     NaN,      NaN,10.66,NaN,NaN,17.313, NaN,NaN,NaN, NaN, NaN,NaN
20070714,003052,1384233,34.116710,-120.060263,2.3,16.904,33.731,43.706,1904.66,NaN,-7.183,17.103, NaN, NaN,24.466,   NaN,16.99,1013.31,92.77,17.00,137.7,143.4,7.7,7.2,281.9,283.2,12.3,10.1,NaN, NaN,17.0,126.7,NaN,1184373052,NaN,2,11.0,001852,   NaN,126.7,     NaN,      NaN,10.54,NaN,NaN,17.295, NaN,NaN,NaN, NaN, NaN,NaN
20070714,003121,1384262,34.115800,-120.058865,2.3,16.886,33.730,43.689,1903.45,NaN,-7.368,17.099, NaN, NaN,24.473,   NaN,17.02,1013.31,92.79,17.01,137.0,142.6,8.2,6.5,287.3,283.8,10.5,10.2,NaN, NaN,17.0,127.0,NaN,1184373081,NaN,2,10.9,001881,   NaN,127.1,     NaN,      NaN,10.80,NaN,NaN,17.277, NaN,NaN,NaN, NaN, NaN,NaN
20070714,003151,1384293,34.114862,-120.057412,2.3,16.854,33.731,43.658,1900.75,NaN,-7.607,17.095, NaN, NaN,24.483,   NaN,17.02,1013.32,92.79,17.01,138.9,141.0,7.6,6.3,277.7,283.0,12.4,12.4,NaN, NaN,17.0,126.7,NaN,1184373111,NaN,2,11.0,001911,   NaN,126.7,     NaN,      NaN,10.68,NaN,NaN,17.245, NaN,NaN,NaN, NaN, NaN,NaN
20070714,003222,1384323,34.113892,-120.055907,2.3,16.812,33.732,43.618,1900.11,NaN,-7.480,17.085, NaN, NaN,24.500,   NaN,17.05,1013.37,92.80,17.03,137.3,139.9,7.4,6.7,279.4,282.4,11.9,11.0,NaN, NaN,18.0,126.7,NaN,1184373142,NaN,2,11.0,001942,   NaN,126.7,     NaN,      NaN,10.99,NaN,NaN,17.203, NaN,NaN,NaN, NaN, NaN,NaN
20070714,003251,1384352,34.112983,-120.054502,2.3,16.744,33.732,43.553,1893.58,NaN,-7.939,17.064, NaN, NaN,24.517,   NaN,17.08,1013.36,92.82,17.04,134.7,139.9,7.3,6.5,273.2,283.6,12.1,11.2,NaN, NaN,17.0,127.1,NaN,1184373171,NaN,2,11.0,001971,   NaN,127.0,     NaN,      NaN,10.80,NaN,NaN,17.135, NaN,NaN,NaN, NaN, NaN,NaN
20070714,003322,1384384,34.112025,-120.052975,2.3,16.675,33.734,43.487,1890.60,NaN,-7.993,17.045, NaN, NaN,24.531,   NaN,17.09,1013.34,92.82,17.03,132.6,137.1,7.5,6.7,285.7,283.4,12.0,11.5,NaN, NaN,18.0,127.5,NaN,1184373202,NaN,2,10.9,002003,   NaN,127.6,     NaN,      NaN,10.31,NaN,NaN,17.066, NaN,NaN,NaN, NaN, NaN,NaN
20070714,003351,1384412,34.111143,-120.051658,2.3,16.620,33.734,43.436,1888.13,NaN,-8.288,17.018, NaN, NaN,24.543,   NaN,17.06,1013.40,92.72,17.04,132.8,137.5,8.5,7.1,283.2,289.1,12.0,11.0,NaN, NaN,18.0,128.0,NaN,1184373231,NaN,2,10.7,002031,   NaN,128.0,     NaN,      NaN,10.58,NaN,NaN,17.011, NaN,NaN,NaN, NaN, NaN,NaN
20070714,003421,1384442,34.110230,-120.050183,2.3,16.568,33.735,43.386,1887.06,NaN,-8.377,16.993, NaN, NaN,24.556,   NaN,17.06,1013.42,92.66,17.05,138.2,142.1,7.8,7.2,285.9,287.8,12.6,12.6,NaN, NaN,18.0,126.7,NaN,1184373261,NaN,2,10.9,002061,   NaN,126.7,     NaN,      NaN,10.71,NaN,NaN,16.959, NaN,NaN,NaN, NaN, NaN,NaN
20070714,003452,1384473,34.109275,-120.048667,2.3,16.516,33.736,43.338,1887.90,NaN,-8.426,16.958, NaN, NaN,24.565,   NaN,16.98,1013.43,92.62,17.03,139.4,143.5,7.5,7.5,288.0,284.8,11.9,12.6,NaN, NaN,18.0,126.1,NaN,1184373292,NaN,2,11.0,002092,   NaN,126.1,     NaN,      NaN,10.74,NaN,NaN,16.907, NaN,NaN,NaN, NaN, NaN,NaN
20070714,003521,1384502,34.108393,-120.047247,2.3,16.484,33.736,43.308,1882.63,NaN,-8.970,16.925, NaN, NaN,24.574,   NaN,16.96,1013.44,92.58,16.99,140.1,144.5,7.8,7.6,274.6,284.9,10.9,10.1,NaN, NaN,18.0,126.5,NaN,1184373321,NaN,2,11.0,002121,   NaN,126.5,     NaN,      NaN,10.65,NaN,NaN,16.875, NaN,NaN,NaN, NaN, NaN,NaN
20070714,003552,1384533,34.107412,-120.045683,2.3,16.445,33.738,43.270,1881.94,NaN,-8.406,16.892, NaN, NaN,24.583,   NaN,16.98,1013.43,92.58,16.98,136.5,139.4,7.3,6.8,280.5,283.3,12.7,11.7,NaN, NaN,18.0,126.5,NaN,1184373352,NaN,2,11.0,002153,   NaN,126.4,     NaN,      NaN,10.65,NaN,NaN,16.836, NaN,NaN,NaN, NaN, NaN,NaN
20070714,003621,1384562,34.106575,-120.044307,2.3,16.409,33.738,43.237,1880.66,NaN,-8.249,16.858, NaN, NaN,24.597,   NaN,17.06,1013.43,92.70,17.01,134.2,137.5,6.9,6.0,279.8,288.0,11.9,9.9,NaN, NaN,18.0,126.5,NaN,1184373381,NaN,2,11.0,002181,   NaN,126.5,     NaN,      NaN,10.61,NaN,NaN,16.800, NaN,NaN,NaN, NaN, NaN,NaN
20070714,003651,1384592,34.105675,-120.042857,2.3,16.354,33.738,43.183,1883.83,NaN,-8.144,16.818, NaN, NaN,24.618,   NaN,17.06,1013.44,92.71,17.00,136.2,139.7,7.3,6.0,276.3,287.7,12.0,9.0,NaN, NaN,18.0,126.7,NaN,1184373411,NaN,2,10.9,002211,   NaN,126.7,     NaN,      NaN,10.55,NaN,NaN,16.744, NaN,NaN,NaN, NaN, NaN,NaN